Wind_Speed
36 36 37 37 38 39 39 40 41 42 42 42 42 43 44 44 45 45 44 44 45 45 46 46 46 46 46 46 46 47 46 46 46 44 45 46 46 46 46 46 47 47 47
35 36 36 37 38 39 39 40 41 41 42 42 43 43 43 43 44 45 45 45 45 46 46 47 46 47 47 46 47 47 47 47 47 46 47 46 46 46 47 47 48 48 48
36 36 36 37 38 39 39 39 40 41 41 42 42 42 42 43 44 45 45 46 45 45 46 46 46 46 46 46 47 47 48 48 47 47 47 47 47 47 47 48 48 48 48
35 36 36 37 37 38 38 38 39 39 39 39 40 41 41 42 43 44 45 46 46 46 46 46 46 46 46 46 47 47 48 48 49 49 48 48 48 48 48 48 47 47 47
34 35 36 36 36 36 37 37 37 37 37 37 38 39 40 40 41 43 44 44 45 46 46 46 46 47 47 47 47 48 48 49 49 48 48 47 48 48 48 47 46 46 47
33 34 33 33 34 34 34 34 34 35 35 35 36 36 37 39 39 41 42 43 44 45 45 46 47 47 47 47 48 48 48 48 48 48 48 48 47 47 47 47 47 47 46
33 33 33 33 34 34 33 33 33 33 34 34 35 35 36 36 37 38 39 41 42 43 43 44 45 47 47 46 46 46 46 47 47 48 48 48 47 47 47 48 48 48 47
32 32 33 33 33 33 33 33 32 32 33 33 34 34 34 35 35 36 37 38 40 40 41 42 43 44 45 45 45 44 45 46 46 46 47 46 47 47 47 47 47 47 46
31 31 31 32 32 31 31 31 31 31 31 32 32 32 32 33 33 34 35 36 37 38 38 39 40 41 42 43 44 43 43 43 44 44 44 45 45 46 45 45 45 44 43
29 29 29 29 29 29 29 29 29 29 29 29 30 30 31 31 32 32 33 34 35 36 36 36 37 38 38 39 40 40 40 40 41 41 42 42 42 42 42 42 42 42 41
27 27 27 27 27 28 28 28 28 28 28 28 28 29 29 30 31 31 31 32 32 33 34 34 34 35 35 35 36 37 37 37 37 38 38 39 40 40 39 39 39 39 38
25 26 26 26 26 26 27 27 26 26 26 26 27 27 28 28 29 29 29 29 30 31 31 32 32 32 32 33 33 33 34 34 35 36 36 37 38 37 37 37 37 37 36
24 24 25 25 25 25 25 25 25 25 25 25 25 26 26 26 27 27 27 28 28 28 29 29 29 29 30 30 31 31 31 31 32 33 34 35 35 35 35 35 35 35 34
23 23 23 24 24 23 23 23 23 23 24 23 23 24 24 24 24 24 25 25 25 25 26 26 26 27 27 27 27 28 29 29 30 30 31 32 32 31 32 32 32 32 32
22 22 22 21 22 22 22 22 22 22 22 22 22 22 22 22 22 22 23 23 23 23 24 24 23 24 24 24 24 24 25 26 27 27 27 27 27 28 28 28 28 28 29
21 21 21 20 20 21 21 21 21 22 22 21 22 21 22 22 22 21 21 21 21 21 22 22 22 23 23 22 22 22 23 24 24 25 25 24 24 25 25 25 25 25 25
20 20 20 20 19 19 19 20 20 21 21 21 22 22 22 22 22 21 21 21 20 20 20 21 21 22 21 22 22 22 22 22 22 22 23 22 22 22 22 22 23 23 24
19 19 19 19 19 19 19 20 20 20 20 20 21 21 21 21 20 20 19 19 19 19 20 20 20 20 20 21 20 20 20 20 20 20 20 21 21 21 21 21 22 22 22
18 18 18 19 19 19 20 20 20 19 19 20 20 20 20 19 19 19 19 18 18 18 19 19 19 19 19 19 19 19 18 18 18 18 18 18 18 19 19 20 20 20 20
17 17 17 18 18 18 18 19 19 19 19 19 19 19 18 18 18 18 18 18 18 18 18 18 18 18 18 17 17 16 16 16 16 16 16 16 16 16 17 17 17 17 18
16 17 17 17 17 17 17 17 17 17 17 17 17 17 17 17 17 17 17 17 17 17 17 17 17 17 16 15 14 14 13 13 13 13 14 14 14 14 14 14 14 15 15
14 14 14 15 15 15 15 15 15 15 16 16 16 16 16 16 16 16 16 16 16 16 15 15 15 15 14 14 13 13 13 13 13 13 13 13 12 12 12 12 12 13 13
13 13 13 13 14 14 14 14 14 15 15 15 15 15 15 15 15 15 15 15 15 15 14 14 13 13 13 13 13 13 13 13 13 13 13 12 12 12 11 11 11 11 11
13 13 13 13 13 14 14 14 14 14 14 14 14 14 14 14 14 14 14 14 14 14 14 13 12 12 12 12 12 12 12 12 12 12 12 12 11 11 10 10 10 10 9
13 14 14 14 14 14 14 14 14 14 13 13 13 13 13 13 13 13 14 14 13 13 12 12 12 12 12 11 11 11 11 11 11 10 10 10 10 10 9 9 9 8 8
13 14 14 14 14 14 13 13 13 13 12 12 12 13 13 13 13 13 13 13 13 12 12 12 12 11 11 11 11 11 10 10 10 9 8 9 9 9 8 8 7 7 7
Wind_Direction
264 264 264 264 264 264 264 263 263 263 263 263 263 262 262 261 260 259 260 261 260 260 260 260 260 261 262 263 265 265 267 268 268 268 269 269 269 271 272 273 275 276 276
267 267 266 266 266 265 265 266 265 265 265 265 265 264 263 262 261 259 258 259 260 261 261 261 261 262 263 264 266 266 266 267 268 269 269 269 269 270 272 273 275 276 277
269 269 269 269 268 268 268 268 267 266 266 266 266 265 264 263 262 260 259 258 260 261 261 262 262 262 263 264 265 266 267 267 268 269 269 270 271 271 273 274 275 276 276
270 270 270 271 271 269 269 269 267 267 267 267 266 265 264 264 263 262 260 261 261 261 262 263 262 262 263 264 265 266 267 267 268 269 270 271 272 272 273 274 274 275 276
270 270 271 271 271 269 269 268 267 267 267 267 267 266 266 266 265 264 262 262 262 261 262 263 263 263 264 265 266 267 267 268 269 269 270 272 272 273 273 274 274 274 276
272 272 271 271 270 269 268 268 267 267 267 267 267 267 268 267 267 266 264 262 262 263 263 263 263 263 264 265 265 266 267 267 268 269 269 271 272 273 273 274 274 275 276
272 271 271 272 271 269 269 269 268 267 267 267 268 268 269 269 269 268 266 264 263 264 265 265 265 264 264 265 265 265 266 266 268 269 269 270 271 272 273 274 274 276 277
272 272 272 272 271 270 269 269 269 268 268 268 269 269 269 269 271 271 269 266 266 266 267 267 267 266 265 266 266 266 266 266 267 268 269 269 270 271 272 274 275 277 278
273 273 272 271 270 269 269 268 268 268 269 269 269 270 270 269 270 271 271 269 268 268 268 268 268 268 266 266 266 266 267 267 267 268 269 269 270 272 273 273 274 276 276
272 272 272 271 269 269 269 269 269 269 269 270 270 271 271 271 271 272 272 270 270 269 270 270 269 268 267 266 267 268 268 268 269 269 270 270 271 272 273 273 274 275 275
273 272 272 272 271 270 270 269 269 270 270 271 271 273 273 273 273 273 273 273 273 272 271 271 271 270 268 267 267 269 269 269 269 270 270 270 271 272 273 274 273 274 275
274 274 273 272 272 271 270 269 269 270 271 271 272 273 275 275 275 274 274 274 274 274 272 272 272 271 270 268 268 269 269 268 269 270 271 271 272 272 273 273 272 272 273
276 275 274 272 271 270 269 268 269 270 272 273 274 275 276 276 276 276 275 276 276 276 275 274 275 274 273 271 269 269 269 269 270 271 271 272 272 272 272 271 271 271 271
277 276 274 273 271 270 269 268 269 271 274 275 276 277 278 278 278 278 278 277 277 277 277 277 276 276 276 274 273 272 270 271 272 273 273 273 272 272 271 271 271 271 270
277 276 274 273 271 270 270 269 271 273 275 276 276 276 278 279 281 282 282 280 279 278 279 279 278 278 277 277 277 276 275 274 274 274 275 274 273 272 272 271 271 270 271
277 276 275 275 274 273 272 271 271 273 274 275 275 276 279 281 283 283 283 283 282 281 281 281 282 281 279 279 278 277 277 278 277 276 275 275 275 274 272 272 272 272 272
278 277 275 274 273 273 273 273 273 273 274 275 275 277 279 281 282 284 283 283 282 281 281 281 282 282 282 282 281 281 280 280 279 275 274 274 275 275 274 274 275 276 276
278 276 275 274 273 274 274 274 274 274 275 276 275 276 278 279 280 282 282 282 282 280 280 281 283 284 284 284 284 282 282 281 280 276 275 275 275 276 277 277 278 279 279
279 277 275 275 275 275 275 275 275 275 275 276 276 277 277 278 278 279 280 281 280 280 280 282 284 284 285 285 285 285 283 282 280 278 277 278 278 278 280 280 279 279 278
279 277 277 277 276 275 276 276 275 275 277 278 277 276 275 276 277 279 281 280 281 282 282 283 285 286 288 288 287 286 285 284 282 280 279 279 280 281 283 283 281 279 279
281 279 278 277 278 278 278 278 278 278 278 279 279 276 275 276 278 280 281 283 284 285 285 285 285 286 287 287 284 285 286 285 283 282 282 283 283 283 284 285 284 283 283
285 283 280 280 280 282 282 281 281 281 281 281 279 277 275 276 278 281 281 283 284 284 285 286 286 286 286 286 284 283 283 284 284 282 283 285 286 287 288 290 289 287 288
287 286 285 284 283 284 285 284 282 282 282 282 281 279 277 278 279 280 281 281 282 284 285 286 286 284 285 287 287 286 285 284 283 283 284 284 284 286 289 293 293 291 290
289 289 288 287 287 286 287 285 284 285 283 282 282 282 281 281 280 281 282 283 284 285 284 284 285 285 286 286 286 287 289 289 288 284 283 283 282 285 290 294 295 293 293
291 289 288 288 289 289 288 286 286 285 284 283 282 283 283 282 281 282 283 282 283 285 283 283 283 284 284 282 283 285 285 287 289 288 287 284 284 286 289 292 296 296 294
293 291 289 288 288 288 288 287 288 287 284 283 283 284 283 282 281 282 284 283 280 279 279 281 281 280 280 281 282 282 283 285 286 285 283 284 285 284 287 290 294 293 290
Height
5602 5602 5603 5603 5604 5605 5606 5607 5607 5608 5609 5609 5610 5611 5612 5613 5614 5616 5618 5620 5622 5623 5625 5627 5629 5630 5631 5633 5634 5635 5636 5637 5638 5640 5640 5640 5640 5641 5640 5640 5640 5639 5638
5592 5592 5593 5593 5594 5594 5595 5595 5596 5597 5597 5598 5598 5599 5600 5601 5602 5604 5606 5608 5609 5611 5613 5614 5616 5617 5619 5620 5621 5622 5623 5624 5626 5627 5627 5628 5628 5628 5628 5627 5627 5626 5625
5582 5582 5583 5583 5584 5584 5584 5584 5585 5585 5586 5586 5587 5588 5588 5589 5590 5592 5593 5595 5597 5598 5600 5602 5603 5605 5606 5607 5608 5609 5610 5611 5612 5613 5614 5615 5615 5615 5614 5614 5614 5613 5612
5572 5572 5573 5573 5573 5573 5573 5573 5574 5574 5575 5575 5575 5576 5577 5577 5578 5579 5581 5583 5584 5585 5587 5589 5590 5592 5593 5594 5595 5596 5597 5598 5599 5600 5601 5601 5602 5601 5601 5601 5601 5599 5598
5563 5563 5563 5563 5563 5563 5563 5563 5563 5563 5564 5564 5564 5565 5565 5566 5567 5567 5569 5570 5571 5573 5574 5576 5577 5578 5580 5581 5582 5583 5584 5584 5585 5586 5587 5587 5588 5588 5587 5587 5587 5586 5585
5553 5553 5553 5553 5553 5553 5553 5553 5553 5553 5554 5554 5554 5555 5555 5555 5555 5556 5557 5558 5559 5560 5561 5562 5564 5565 5566 5567 5568 5569 5570 5571 5572 5573 5573 5574 5574 5574 5573 5573 5573 5573 5573
5544 5544 5544 5543 5543 5543 5543 5543 5543 5544 5544 5544 5544 5544 5545 5545 5545 5545 5545 5546 5547 5548 5548 5549 5550 5552 5553 5554 5555 5555 5556 5557 5558 5559 5560 5560 5560 5560 5560 5560 5559 5558 5558
5535 5534 5534 5534 5533 5533 5533 5534 5534 5534 5534 5534 5534 5534 5534 5534 5534 5534 5534 5535 5535 5536 5537 5537 5538 5538 5539 5540 5541 5542 5542 5543 5544 5545 5546 5546 5546 5545 5545 5545 5544 5544 5544
5526 5525 5525 5524 5524 5524 5524 5524 5525 5525 5525 5525 5525 5525 5525 5525 5524 5524 5524 5524 5524 5525 5525 5525 5526 5526 5526 5527 5528 5529 5529 5529 5530 5531 5531 5531 5532 5531 5531 5531 5531 5531 5531
5517 5516 5516 5515 5515 5516 5516 5516 5516 5516 5516 5516 5516 5516 5516 5515 5515 5515 5514 5514 5514 5514 5514 5514 5514 5514 5514 5514 5515 5515 5516 5517 5517 5517 5518 5518 5518 5518 5518 5518 5518 5518 5517
5509 5508 5508 5508 5507 5507 5507 5507 5508 5508 5508 5508 5508 5507 5507 5507 5506 5506 5505 5505 5504 5504 5504 5504 5503 5503 5503 5503 5503 5504 5504 5505 5505 5505 5505 5505 5506 5506 5506 5506 5506 5506 5506
5502 5501 5501 5500 5500 5500 5500 5500 5500 5500 5500 5500 5499 5499 5498 5498 5497 5497 5496 5495 5495 5495 5494 5494 5493 5493 5492 5492 5493 5493 5493 5493 5494 5494 5494 5494 5494 5494 5494 5494 5494 5494 5494
5495 5494 5494 5493 5493 5492 5492 5493 5493 5492 5492 5492 5492 5491 5490 5490 5489 5488 5488 5487 5486 5486 5485 5485 5484 5483 5483 5483 5483 5483 5483 5483 5483 5483 5483 5483 5483 5483 5483 5483 5483 5483 5484
5488 5488 5487 5486 5486 5486 5486 5486 5485 5485 5485 5485 5484 5484 5483 5482 5482 5481 5480 5479 5478 5478 5477 5477 5476 5475 5475 5474 5474 5473 5474 5474 5473 5474 5473 5473 5473 5473 5473 5473 5473 5474 5474
5482 5481 5481 5480 5479 5479 5479 5479 5479 5479 5478 5478 5477 5477 5476 5476 5475 5474 5473 5472 5471 5471 5470 5470 5469 5468 5468 5467 5466 5466 5465 5465 5465 5465 5464 5464 5464 5464 5464 5464 5464 5464 5465
5476 5475 5475 5474 5473 5473 5473 5473 5472 5472 5472 5471 5471 5470 5470 5469 5468 5467 5466 5465 5465 5464 5464 5463 5462 5461 5461 5460 5459 5459 5458 5457 5457 5457 5456 5456 5456 5456 5456 5456 5456 5456 5457
5470 5469 5469 5468 5468 5467 5467 5467 5466 5466 5465 5465 5464 5464 5463 5463 5462 5461 5460 5460 5459 5458 5458 5457 5456 5455 5454 5453 5452 5452 5451 5450 5449 5449 5449 5449 5449 5449 5449 5449 5449 5449 5449
5464 5463 5463 5462 5462 5461 5461 5461 5460 5460 5459 5459 5458 5457 5457 5456 5456 5455 5455 5454 5453 5453 5452 5451 5450 5449 5448 5447 5446 5445 5444 5444 5443 5443 5443 5443 5443 5443 5443 5443 5443 5443 5443
5458 5457 5457 5456 5456 5455 5455 5454 5454 5454 5453 5453 5452 5451 5451 5450 5450 5450 5449 5449 5448 5447 5447 5446 5445 5444 5443 5442 5441 5440 5439 5438 5438 5437 5437 5437 5437 5437 5437 5437 5437 5436 5436
5453 5452 5451 5451 5450 5450 5449 5449 5448 5448 5447 5446 5446 5446 5445 5445 5445 5444 5444 5443 5443 5442 5441 5440 5440 5439 5438 5437 5436 5435 5434 5434 5433 5433 5433 5433 5432 5432 5432 5431 5431 5431 5431
5448 5447 5446 5446 5445 5444 5444 5443 5442 5442 5442 5441 5441 5440 5440 5440 5440 5439 5439 5438 5438 5437 5436 5435 5435 5434 5433 5432 5431 5431 5430 5430 5429 5429 5429 5428 5428 5428 5427 5427 5426 5426 5426
5443 5442 5441 5441 5440 5440 5439 5438 5438 5437 5437 5436 5436 5436 5435 5435 5435 5435 5434 5434 5433 5432 5432 5431 5430 5430 5429 5428 5428 5427 5427 5426 5426 5425 5425 5424 5424 5424 5423 5423 5422 5422 5421
5439 5438 5437 5437 5436 5435 5435 5434 5433 5433 5432 5432 5431 5431 5431 5431 5430 5430 5430 5430 5429 5428 5428 5427 5426 5426 5425 5425 5424 5424 5423 5423 5422 5422 5421 5421 5420 5420 5420 5419 5418 5418 5418
5436 5435 5434 5433 5432 5431 5430 5430 5429 5429 5428 5428 5427 5427 5427 5427 5426 5426 5426 5425 5425 5424 5423 5423 5422 5422 5422 5421 5421 5420 5420 5419 5419 5418 5418 5417 5417 5417 5416 5416 5415 5415 5415
5432 5431 5430 5429 5428 5427 5427 5426 5425 5425 5424 5424 5424 5423 5423 5422 5422 5422 5421 5421 5420 5420 5419 5419 5419 5418 5418 5418 5417 5417 5416 5416 5415 5415 5414 5414 5414 5414 5413 5413 5413 5412 5412
5429 5427 5426 5425 5424 5424 5423 5422 5422 5421 5421 5420 5420 5419 5419 5419 5418 5418 5417 5417 5416 5416 5416 5415 5415 5415 5414 5414 5414 5414 5413 5413 5412 5412 5412 5412 5411 5411 5411 5410 5410 5410 5410